9M4GHZ-13 Weather Reports


Display with metric or nautical units.
time (UTC)temp
F
wind
direction
speed
MPH
gust
MPH
rain 1hr
in
rain 24hr
in
rain mn
in
humidity
%
barometer
mb
20260509175005 80 202 1.0 2.0 0.00 0.00 0.00 91 1007.3
20260509174005 80 247 1.0 2.0 0.00 0.00 0.00 91 1007.4
20260509173005 80 247 0.0 1.0 0.00 0.00 0.00 91 1007.6
20260509172004 80 247 1.0 1.0 0.00 0.00 0.00 90 1007.9
20260509171004 80 247 1.0 1.0 0.00 0.00 0.00 91 1008.0
20260509170005 80 247 0.0 1.0 0.00 0.00 0.00 91 1008.1
20260509165005 80 247 0.0 1.0 0.00 0.00 0.00 90 1008.2
20260509164005 80 247 1.0 1.0 0.00 0.00 0.00 90 1008.4
20260509163005 81 270 1.0 2.0 0.00 0.00 0.00 89 1008.5
20260509162005 81 270 2.0 3.0 0.00 0.00 0.00 88 1008.9
20260509161004 81 247 2.0 3.0 0.00 0.00 0.00 88 1009.0
20260509160005 81 270 1.0 2.0 0.00 0.00 0.00 89 1008.8
20260509155004 81 157 0.0 1.0 0.00 0.00 0.00 88 1009.0
20260509154007 82 157 0.0 1.0 0.00 0.00 0.00 87 1009.1
20260509153005 82 157 0.0 0.0 0.00 0.00 0.00 86 1008.9
20260509152003 81 157 0.0 0.0 0.00 0.00 0.00 87 1009.1
20260509151005 81 157 0.0 0.0 0.00 0.00 0.00 87 1009.0
20260509150016 82 157 0.0 0.0 0.00 0.00 0.00 86 1008.9
20260509145004 82 157 0.0 1.0 0.00 0.00 0.00 85 1008.9
20260509144005 82 157 0.0 1.0 0.00 0.00 0.00 84 1008.7
20260509143006 82 135 1.0 2.0 0.00 0.00 0.00 84 1008.8
20260509142004 82 157 1.0 2.0 0.00 0.00 0.00 83 1008.7
20260509141005 81 112 0.0 1.0 0.00 0.00 0.00 86 1008.8
20260509140006 82 112 1.0 2.0 0.00 0.00 0.00 86 1008.7
20260509135004 82 292 0.0 0.0 0.00 0.00 0.00 85 1008.7
20260509134005 82 292 0.0 1.0 0.00 0.00 0.00 84 1008.7
20260509133005 82 292 0.0 1.0 0.00 0.00 0.00 83 1008.6
20260509132004 82 315 0.0 1.0 0.00 0.00 0.00 83 1008.6
20260509131005 82 292 0.0 0.0 0.00 0.00 0.00 82 1008.5
20260509130005 83 270 0.0 1.0 0.00 0.00 0.00 81 1008.5
20260509125003 83 225 0.0 1.0 0.00 0.00 0.00 81 1008.4
20260509124004 83 112 0.0 1.0 0.00 0.00 0.00 81 1008.2
20260509123005 83 292 0.0 1.0 0.00 0.00 0.00 80 1008.3
20260509122004 84 270 1.0 2.0 0.00 0.00 0.00 79 1008.1
20260509121006 84 292 1.0 2.0 0.00 0.00 0.00 78 1007.9
20260509120005 84 315 3.0 4.0 0.00 0.00 0.00 79 1007.6
20260509115003 84 292 3.0 6.0 0.00 0.00 0.00 79 1007.2
20260509114005 84 337 5.0 9.0 0.00 0.00 0.00 80 1007.0
20260509113006 84 315 2.0 4.0 0.00 0.00 0.00 81 1007.0
20260509112004 84 0 3.0 6.0 0.00 0.00 0.00 82 1006.8
20260509111006 84 315 4.0 6.0 0.00 0.00 0.00 82 1006.7
20260509110004 84 292 2.0 3.0 0.00 0.00 0.00 82 1006.7
20260509105004 84 337 1.0 3.0 0.00 0.00 0.00 82 1006.7
20260509104005 84 292 4.0 6.0 0.00 0.00 0.00 81 1006.5
20260509103005 84 315 3.0 4.0 0.00 0.00 0.00 81 1006.4
20260509102004 0 0 0.0 0.0 0.00 0.00 0.00 100
20260509101005 84 315 3.0 6.0 0.00 0.00 0.00 81 1006.4
20260509100006 85 292 3.0 4.0 0.00 0.00 0.00 80 1006.2
20260509095004 85 337 3.0 4.0 0.00 0.00 0.00 79 1006.0
20260509094005 85 0 6.0 9.0 0.00 0.00 0.00 79 1005.9
20260509093005 85 337 3.0 4.0 0.00 0.00 0.00 80 1006.0
20260509092004 85 315 3.0 8.0 0.00 0.00 0.00 79 1005.8
20260509091005 85 0 4.0 8.0 0.00 0.00 0.00 78 1005.6
20260509090005 86 337 5.0 6.0 0.00 0.00 0.00 77 1005.5
20260509085005 86 292 5.0 8.0 0.00 0.00 0.00 77 1005.5
20260509084005 87 337 6.0 11.0 0.00 0.00 0.00 74 1005.4
20260509083005 87 337 6.0 6.0 0.00 0.00 0.00 73 1005.3
20260509082004 88 337 4.0 8.0 0.00 0.00 0.00 73 1005.4
20260509081005 88 270 5.0 8.0 0.00 0.00 0.00 72 1005.1
20260509080005 88 0 5.0 9.0 0.00 0.00 0.00 72 1005.3
20260509075003 87 337 8.0 11.0 0.00 0.00 0.00 73 1005.2
20260509074005 88 292 3.0 6.0 0.00 0.00 0.00 73 1005.3
20260509073005 88 315 5.0 6.0 0.00 0.00 0.00 73 1005.3
20260509072004 88 292 6.0 13.0 0.00 0.00 0.00 72 1005.6
20260509071005 87 315 9.0 13.0 0.00 0.00 0.00 70 1006.1
20260509070005 88 315 4.0 9.0 0.00 0.00 0.00 71 1006.1
20260509065003 88 315 9.0 12.0 0.00 0.00 0.00 70 1006.1
20260509064005 87 337 7.0 12.0 0.00 0.00 0.00 72 1006.1
20260509063006 87 337 7.0 11.0 0.00 0.00 0.00 74 1006.3
20260509062004 88 0 8.0 13.0 0.00 0.00 0.00 74 1006.3
20260509061005 88 337 6.0 11.0 0.00 0.00 0.00 74 1006.4
20260509060004 89 292 9.0 13.0 0.00 0.00 0.00 73 1006.5
20260509055004 88 315 6.0 9.0 0.00 0.00 0.00 71 1006.4
20260509054004 88 292 6.0 10.0 0.00 0.00 0.00 74 1006.7
20260509053005 87 315 6.0 10.0 0.00 0.00 0.00 75 1006.8
20260509052003 87 315 9.0 11.0 0.00 0.00 0.00 76 1007.1
20260509051005 87 315 6.0 9.0 0.00 0.00 0.00 76 1007.8
20260509050004 87 292 11.0 15.0 0.00 0.00 0.00 74 1008.0
20260509045005 88 315 11.0 15.0 0.00 0.00 0.00 72 1008.1
20260509044004 87 337 3.0 6.0 0.00 0.00 0.00 74 1008.1
20260509043004 90 315 8.0 10.0 0.00 0.00 0.00 69 1008.4
20260509042004 89 292 6.0 9.0 0.00 0.00 0.00 63 1008.7
20260509041005 90 270 10.0 13.0 0.00 0.00 0.00 63 1008.7
20260509040004 89 292 11.0 15.0 0.00 0.00 0.00 62 1008.8
20260509035004 89 315 6.0 9.0 0.00 0.00 0.00 65 1009.3
20260509034005 88 337 3.0 6.0 0.00 0.00 0.00 64 1009.1
20260509033005 89 22 6.0 9.0 0.00 0.00 0.00 63 1009.5
20260509032004 88 247 5.0 8.0 0.00 0.00 0.00 66 1009.4
20260509031005 88 315 6.0 10.0 0.00 0.00 0.00 68 1009.6
20260509030004 88 292 1.0 6.0 0.00 0.00 0.00 71 1009.5
20260509025003 87 135 3.0 6.0 0.00 0.00 0.00 72 1009.3
20260509024003 86 225 2.0 3.0 0.00 0.00 0.00 74 1009.5
20260509023004 85 270 3.0 4.0 0.00 0.00 0.00 77 1009.6
20260509022003 86 135 2.0 3.0 0.00 0.00 0.00 75 1009.7
20260509021005 85 292 0.0 1.0 0.00 0.00 0.00 78 1009.7
20260509020005 84 135 0.0 1.0 0.00 0.00 0.00 78 1010.1
20260509015004 84 292 2.0 4.0 0.00 0.00 0.00 80 1010.0
20260509014005 83 225 4.0 6.0 0.00 0.00 0.00 82 1010.4
20260509013004 82 157 2.0 3.0 0.00 0.00 0.00 84 1010.4
20260509012004 82 202 3.0 6.0 0.00 0.00 0.00 85 1010.4
20260509011004 82 157 3.0 6.0 0.00 0.00 0.00 86 1010.3
20260509010005 81 157 3.0 4.0 0.00 0.00 0.00 87 1010.1
20260509005004 81 247 2.0 3.0 0.00 0.00 0.00 88 1010.2
20260509004005 81 315 2.0 3.0 0.00 0.00 0.00 87 1010.1
20260509003006 80 270 1.0 2.0 0.00 0.00 0.00 89 1010.2
20260509002005 80 270 0.0 1.0 0.00 0.00 0.00 91 1010.0
20260509001004 79 270 2.0 3.0 0.00 0.00 0.00 92 1009.9
20260509000005 78 247 3.0 4.0 0.00 0.00 0.00 93 1009.7
20260508235004 78 202 2.0 3.0 0.00 0.00 0.00 94 1009.5
20260508234004 78 157 1.0 2.0 0.00 0.00 0.00 94 1009.3
20260508233005 78 112 1.0 2.0 0.00 0.00 0.00 95 1009.4
20260508232005 78 202 3.0 4.0 0.00 0.00 0.00 96 1009.3
20260508231005 77 157 3.0 6.0 0.00 0.00 0.00 96 1009.3
20260508230005 77 157 3.0 4.0 0.00 0.00 0.00 97 1009.0
20260508225005 77 157 1.0 2.0 0.00 0.00 0.00 97 1009.2
20260508224004 77 180 1.0 2.0 0.00 0.00 0.00 97 1009.1
20260508223005 77 157 2.0 2.0 0.00 0.00 0.00 97 1009.0
20260508222005 77 157 1.0 3.0 0.00 0.00 0.00 97 1008.6
20260508221005 77 157 1.0 2.0 0.00 0.00 0.00 97 1008.6
20260508220005 77 202 0.0 1.0 0.00 0.00 0.00 97 1008.4
20260508215003 77 180 0.0 1.0 0.00 0.00 0.00 97 1008.2
20260508214005 77 157 0.0 1.0 0.00 0.00 0.00 97 1008.2
20260508213006 77 180 2.0 3.0 0.00 0.00 0.00 97 1007.9
20260508212005 77 157 2.0 3.0 0.00 0.00 0.00 97 1007.8
20260508211004 77 135 1.0 1.0 0.00 0.00 0.00 98 1007.7
20260508210004 77 135 1.0 2.0 0.00 0.00 0.00 98 1007.6
20260508205004 77 225 0.0 1.0 0.00 0.00 0.00 98 1007.5
20260508204005 77 157 1.0 2.0 0.00 0.00 0.00 97 1007.4
20260508203005 77 202 2.0 2.0 0.00 0.00 0.00 97 1007.4
20260508202005 77 180 0.0 1.0 0.00 0.00 0.00 97 1007.3
20260508201004 77 225 1.0 2.0 0.00 0.00 0.00 97 1007.3
20260508195004 77 270 1.0 2.0 0.00 0.00 0.00 97 1007.5
20260508194005 77 270 0.0 2.0 0.00 0.00 0.00 97 1007.3
20260508193005 77 270 0.0 1.0 0.00 0.00 0.00 97 1007.3
20260508192005 77 292 1.0 2.0 0.00 0.00 0.00 97 1007.5
20260508191004 77 292 0.0 1.0 0.00 0.00 0.00 97 1007.4
20260508190005 77 247 0.0 1.0 0.00 0.00 0.00 97 1007.4
20260508185005 77 247 0.0 1.0 0.00 0.00 0.00 97 1007.6
20260508184005 77 247 1.0 2.0 0.00 0.00 0.00 96 1007.6
20260508183005 77 270 1.0 2.0 0.00 0.00 0.00 96 1007.9
20260508182005 77 180 0.0 0.0 0.00 0.00 0.00 96 1008.1
20260508181005 77 180 0.0 0.0 0.00 0.00 0.00 96 1008.2
20260508180005 77 225 0.0 1.0 0.00 0.00 0.00 96 1008.6